Regional Weather Roundup
Issued by NWS State College, PA

Home | Current Version | Previous Version | Graphics & Text | Print | Product List | Glossary On
Versions: 1 2 3 4 5 6 7 8 9 10 11 12 13 14 15 16 17 18 19 20 21 22 23 24 25 26 27 28 29 30 31 32 33 34 35 36 37 38 39 40 41 42 43 44 45 46 47 48 49 50
000
ASUS41 KCTP 010210
RWRCTP

REGIONAL WEATHER ROUNDUP
NATIONAL WEATHER SERVICE STATE COLLEGE PA
900 PM EST SAT FEB 28 2015

Note: "fair" indicates few or no clouds below 12,000 feet with no
significant weather and/or obstructions to visibility.

* = STATION THAT DOES NOT REPORT PRECIPITATION /E.G. RAIN...SNOW...ETC/
    THUNDER OR FOG.

PAZ002>004-007>009-013>016-020>023-029>032-010300-
WESTERN PENNSYLVANIA

CITY           SKY/WX    TMP DP  RH WIND       PRES   REMARKS
ERIE           CLEAR     11   0  61 E3        30.63F
MEADVILLE        N/A     14  -4  44 CALM      30.56F
FRANKLIN*      PTCLDY    16  -8  35 E5        30.57F WCI   9
NEW CASTLE     FAIR      17  -6  35 CALM      30.61F
BEAVER COUNTY  CLEAR     21   0  39 CALM      30.59F
BUTLER*        CLEAR     12  -2  52 CALM      30.59F
PITTSBURGH INT PTCLDY    22  -1  36 E3        30.58F
PITTSBURGH     CLEAR     22  -4  32 NE3       30.57F
INDIANA*       CLEAR     21   0  39 E7        30.61F WCI  13
LATROBE        CLEAR     23   1  39 CALM      30.60F
WASHINGTON CO* CLEAR     19   9  63 CALM      30.58F
$$

PAZ004>006-010>012-017>019-024>028-033>037-041-042-045-046-049>053-010300-
CENTRAL PENNSYLVANIA

CITY           SKY/WX    TMP DP  RH WIND       PRES   REMARKS
BRADFORD       CLEAR      8  -7  50 CALM      30.54S
DUBOIS         CLEAR     18  -8  31 SE8       30.55F WCI   8
CLEARFIELD     CLEAR     14  -4  44 N5        30.61S WCI   6
JOHNSTOWN      CLEAR     19  -2  39 SE9       30.52S WCI   8
ALTOONA        CLEAR     19  -2  39 S6        30.63R WCI  11
STATE COLLEGE  NOT AVBL
WILLIAMSPORT   CLEAR     17   2  51 CALM      30.71S
SELINSGROVE    CLEAR     13   6  74 CALM      30.73S
FT INDIANTOWN  CLEAR     15   2  56 NE1       30.74R
CAPITAL CITY   CLEAR     18   6  59 CALM      30.75R
HARRISBURG     CLEAR     17   4  56 E3        30.75R
YORK           CLEAR     12   4  70 CALM      30.74R
$$

PAZ038>040-043-044-047-048-054-055-060>062-067>071-010300-
EASTERN PENNSYLVANIA

CITY           SKY/WX    TMP DP  RH WIND       PRES   REMARKS
SCRANTON       CLEAR     15   0  51 E3        30.68R
MOUNT POCONO   CLEAR      3  -5  69 N5        30.60S WCI  -6
ALLENTOWN      CLEAR     17   0  47 CALM      30.74R
QUAKERTOWN*    CLEAR     12   3  67 CALM      30.74R
READING        CLEAR     22   0  38 CALM      30.74S
LANCASTER      CLEAR     20   1  43 CALM      30.74S
COATESVILLE    CLEAR     23   1  39 CALM      30.74R
POTTSTOWN      CLEAR     16   3  56 CALM      30.76R
BLUE BELL      CLEAR     21  12  68 CALM      30.74S
DOYLESTOWN     CLEAR     17   0  47 CALM      30.73R
WILLOW GROVE   NOT AVBL
NORTH PHILA    CLEAR     25  -1  32 CALM      30.78R
PHILADELPHIA   FAIR      26   7  44 SW9       30.79R
$$



USA.gov is the U.S. government's official web portal to all federal, state and local government web resources and services.